GW0326 Weather Reports


Display with metric or nautical units.
time (UTC)temp
F
wind
direction
speed
MPH
gust
MPH
rain 1hr
in
rain 24hr
in
rain mn
in
humidity
%
barometer
mb
20260507124556 38 234 4.0 17.0 0.00 0.15 0.00 64 1019.1
20260507124048 37 270 4.0 14.0 0.00 0.15 0.00 65 1019.1
20260507123547 37 360 5.0 14.0 0.00 0.15 0.00 66 1019.1
20260507123108 37 279 3.0 13.0 0.00 0.15 0.00 66 1019.1
20260507122547 37 294 3.0 13.0 0.00 0.15 0.00 67 1019.0
20260507122049 36 263 1.0 11.0 0.00 0.15 0.00 68 1018.9
20260507121555 36 236 2.0 17.0 0.00 0.15 0.00 67 1018.8
20260507121046 36 298 4.0 17.0 0.00 0.15 0.00 67 1018.8
20260507120545 36 0 4.0 12.0 0.00 0.15 0.00 68 1018.6
20260507120052 36 360 3.0 12.0 0.00 0.15 0.00 68 1018.6
20260507115547 36 261 4.0 14.0 0.00 0.15 0.00 68 1018.6
20260507115046 36 360 3.0 14.0 0.00 0.15 0.00 68 1018.7
20260507114557 35 294 4.0 11.0 0.00 0.15 0.00 69 1018.8
20260507114049 35 267 3.0 13.0 0.00 0.15 0.00 69 1019.0
20260507113547 35 360 3.0 13.0 0.00 0.15 0.00 70 1018.8
20260507113052 35 360 2.0 9.0 0.00 0.15 0.00 71 1018.9
20260507112548 36 267 1.0 9.0 0.00 0.15 0.00 68 1019.3
20260507112047 36 0 1.0 9.0 0.00 0.15 0.00 66 1019.2
20260507111552 37 0 1.0 14.0 0.00 0.15 0.00 65 1018.9
20260507111048 37 226 2.0 14.0 0.00 0.15 0.00 65 1018.9
20260507110548 37 256 2.0 14.0 0.00 0.15 0.00 64 1018.9
20260507110057 37 360 3.0 14.0 0.00 0.15 0.00 64 1018.9
20260507105546 37 248 2.0 14.0 0.00 0.15 0.00 64 1018.8
20260507105047 37 0 2.0 14.0 0.00 0.15 0.00 64 1018.7
20260507104559 37 360 4.0 13.0 0.00 0.15 0.00 63 1018.7
20260507104047 37 0 1.0 14.0 0.00 0.15 0.00 64 1018.8
20260507103549 37 360 3.0 14.0 0.00 0.15 0.00 64 1018.9
20260507103053 37 263 5.0 14.0 0.00 0.15 0.00 65 1018.8
20260507102548 36 225 2.0 11.0 0.00 0.15 0.00 66 1018.8
20260507102050 36 0 1.0 11.0 0.00 0.15 0.00 67 1018.9
20260507101551 36 266 1.0 10.0 0.00 0.15 0.00 66 1018.9
20260507101048 36 288 3.0 10.0 0.00 0.15 0.00 66 1018.9
20260507100545 36 0 0.0 10.0 0.00 0.15 0.00 68 1018.9
20260507100059 37 327 2.0 10.0 0.00 0.15 0.00 65 1018.8
20260507095548 36 281 2.0 14.0 0.00 0.15 0.00 66 1018.7
20260507095047 36 0 3.0 14.0 0.00 0.15 0.00 67 1018.6
20260507094553 36 288 0.0 12.0 0.00 0.15 0.00 68 1018.8
20260507094046 35 246 1.0 12.0 0.00 0.15 0.00 67 1018.7
20260507093547 35 238 3.0 10.0 0.00 0.15 0.00 67 1018.7
20260507093052 35 0 0.0 9.0 0.00 0.15 0.00 69 1018.9
20260507092547 35 269 1.0 9.0 0.00 0.15 0.00 68 1019.0
20260507092047 35 293 2.0 9.0 0.00 0.15 0.00 68 1018.8
20260507091551 35 360 1.0 11.0 0.00 0.15 0.00 67 1019.0
20260507091047 35 248 2.0 13.0 0.00 0.15 0.00 67 1018.9
20260507090546 35 296 2.0 13.0 0.00 0.15 0.00 66 1018.9
20260507090059 35 248 3.0 15.0 0.00 0.15 0.00 65 1018.9
20260507085547 35 283 3.0 15.0 0.00 0.15 0.00 66 1018.9
20260507085047 35 0 2.0 14.0 0.00 0.15 0.00 66 1018.9
20260507084555 35 226 3.0 13.0 0.00 0.15 0.00 66 1018.7
20260507084047 34 216 2.0 13.0 0.00 0.15 0.00 67 1018.7
20260507083551 34 327 3.0 12.0 0.00 0.15 0.00 68 1018.8
20260507083050 34 300 3.0 10.0 0.00 0.15 0.00 68 1018.7
20260507082548 34 360 3.0 13.0 0.00 0.15 0.00 69 1018.7
20260507082047 34 278 3.0 13.0 0.00 0.15 0.00 68 1018.7
20260507081556 34 281 4.0 13.0 0.00 0.15 0.00 68 1018.6
20260507081050 34 283 2.0 9.0 0.00 0.15 0.00 68 1018.7
20260507080547 34 360 3.0 16.0 0.00 0.15 0.00 69 1018.6
20260507080120 34 275 3.0 16.0 0.00 0.15 0.00 69 1018.6
20260507075547 33 275 5.0 19.0 0.00 0.15 0.00 69 1018.9
20260507075048 33 229 4.0 19.0 0.00 0.15 0.00 69 1018.8
20260507074557 33 188 3.0 11.0 0.00 0.15 0.00 70 1018.7
20260507074047 32 230 3.0 10.0 0.00 0.15 0.00 70 1019.1
20260507073551 32 283 1.0 10.0 0.00 0.15 0.00 71 1019.3
20260507073053 32 248 0.0 14.0 0.00 0.15 0.00 71 1019.5
20260507072547 33 0 1.0 14.0 0.00 0.15 0.00 69 1019.5
20260507072047 33 277 2.0 12.0 0.00 0.15 0.00 68 1019.4
20260507071553 33 302 2.0 13.0 0.00 0.15 0.00 68 1019.5
20260507071048 32 277 0.0 13.0 0.00 0.15 0.00 70 1019.5
20260507070548 32 0 2.0 9.0 0.00 0.15 0.00 69 1019.5
20260507065549 33 0 2.0 9.0 0.00 0.15 0.00 69 1019.5
20260507065047 33 351 2.0 14.0 0.00 0.15 0.00 69 1019.5
20260507064626 33 0 2.0 14.0 0.00 0.15 0.00 70 1019.4
20260507064049 33 252 1.0 13.0 0.00 0.15 0.00 70 1019.3
20260507063547 33 304 1.0 14.0 0.00 0.15 0.00 69 1019.4
20260507063053 33 360 4.0 15.0 0.00 0.15 0.00 70 1019.4
20260507062547 33 360 5.0 17.0 0.00 0.15 0.00 70 1019.1
20260507062047 33 286 7.0 17.0 0.00 0.15 0.00 71 1019.1
20260507061552 33 238 3.0 14.0 0.00 0.15 0.00 72 1019.0
20260507061048 33 360 4.0 12.0 0.00 0.15 0.00 71 1018.9
20260507060546 33 0 3.0 14.0 0.00 0.15 0.00 73 1018.9
20260507060110 33 310 4.0 14.0 0.00 0.15 0.00 72 1018.9
20260507055547 32 233 4.0 13.0 0.00 0.15 0.15 73 1018.8
20260507055047 32 360 2.0 13.0 0.00 0.15 0.15 74 1018.9
20260507054552 32 296 3.0 10.0 0.00 0.15 0.15 74 1018.9
20260507054045 32 192 1.0 11.0 0.00 0.15 0.15 75 1018.8
20260507053546 32 220 3.0 13.0 0.00 0.15 0.15 74 1018.8
20260507053058 32 319 3.0 17.0 0.00 0.15 0.15 73 1018.8
20260507052544 32 266 4.0 17.0 0.00 0.15 0.15 74 1018.8
20260507052044 32 227 2.0 14.0 0.00 0.15 0.15 75 1018.8
20260507051605 32 188 2.0 16.0 0.00 0.15 0.15 75 1018.9
20260507051045 32 293 2.0 16.0 0.00 0.15 0.15 75 1018.9
20260507050548 32 293 2.0 12.0 0.00 0.15 0.15 76 1019.0
20260507050053 32 271 3.0 12.0 0.00 0.15 0.15 75 1019.1
20260507045548 32 0 1.0 10.0 0.00 0.15 0.15 75 1019.2
20260507045048 32 0 2.0 13.0 0.00 0.15 0.15 76 1019.1
20260507044556 32 0 2.0 13.0 0.00 0.15 0.15 76 1019.2
20260507044050 32 0 0.0 11.0 0.00 0.15 0.15 76 1019.1
20260507043545 32 219 3.0 15.0 0.00 0.15 0.15 75 1019.1
20260507043055 32 236 3.0 15.0 0.00 0.15 0.15 74 1019.0
20260507042545 32 258 3.0 16.0 0.00 0.15 0.15 75 1019.0
20260507042044 32 231 2.0 16.0 0.00 0.15 0.15 77 1019.1
20260507041552 32 210 4.0 16.0 0.00 0.15 0.15 77 1019.0
20260507041044 32 236 3.0 15.0 0.00 0.15 0.15 77 1018.9
20260507040545 32 0 5.0 15.0 0.00 0.15 0.15 77 1019.1
20260507040053 32 241 2.0 14.0 0.00 0.15 0.15 78 1019.2
20260507035548 32 0 3.0 12.0 0.00 0.15 0.15 78 1019.1
20260507035045 31 0 1.0 10.0 0.00 0.15 0.15 79 1019.2
20260507034551 31 0 1.0 6.0 0.00 0.15 0.15 81 1019.1
20260507034047 31 219 1.0 21.0 0.00 0.15 0.15 81 1018.9
20260507033612 31 240 0.0 21.0 0.00 0.15 0.15 83 1018.9
20260507033046 31 242 0.0 5.0 0.00 0.15 0.15 84 1018.9
20260507032548 31 0 0.0 12.0 0.00 0.15 0.15 85 1018.8
20260507032044 31 0 0.0 12.0 0.00 0.15 0.15 84 1018.9
20260507031549 31 0 0.0 11.0 0.00 0.15 0.15 84 1018.9
20260507031045 31 0 2.0 11.0 0.00 0.15 0.15 85 1018.9
20260507030545 30 0 1.0 11.0 0.00 0.15 0.15 87 1018.6
20260507030048 30 0 0.0 3.0 0.00 0.15 0.15 89 1018.6
20260507025544 30 286 0.0 1.0 0.00 0.15 0.15 90 1018.5
20260507025044 30 0 0.0 1.0 0.00 0.15 0.15 89 1018.5
20260507024550 30 0 0.0 0.0 0.00 0.15 0.15 90 1018.5
20260507024045 30 0 0.0 0.0 0.00 0.15 0.15 90 1018.4
20260507023544 31 0 0.0 0.0 0.00 0.15 0.15 89 1018.4
20260507023053 31 0 0.0 1.0 0.00 0.15 0.15 89 1018.3
20260507022545 31 0 0.0 1.0 0.00 0.15 0.15 89 1018.3
20260507022045 31 0 0.0 8.0 0.00 0.15 0.15 89 1018.2
20260507021553 31 0 0.0 8.0 0.00 0.15 0.15 88 1018.1
20260507021045 31 0 0.0 8.0 0.00 0.15 0.15 89 1018.0
20260507020545 31 0 1.0 5.0 0.00 0.15 0.15 90 1017.9
20260507020103 31 0 1.0 5.0 0.00 0.15 0.15 92 1017.8
20260507015547 31 0 0.0 3.0 0.00 0.15 0.15 93 1017.8
20260507015045 31 0 0.0 3.0 0.00 0.15 0.15 93 1017.8
20260507014557 31 0 0.0 0.0 0.00 0.15 0.15 93 1017.6
20260507014045 31 0 0.0 0.0 0.00 0.15 0.15 93 1017.8
20260507013548 31 0 0.0 0.0 0.00 0.15 0.15 93 1017.7
20260507013053 32 0 0.0 0.0 0.00 0.15 0.15 93 1017.8
20260507012544 32 0 0.0 0.0 0.00 0.15 0.15 93 1017.8
20260507012044 32 0 0.0 0.0 0.00 0.15 0.15 93 1017.9
20260507011554 32 0 0.0 0.0 0.01 0.15 0.15 93 1017.8
20260507011045 32 0 0.0 0.0 0.01 0.15 0.15 92 1017.9
20260507010548 32 0 0.0 0.0 0.01 0.15 0.15 92 1017.9
20260507010106 32 0 0.0 0.0 0.01 0.15 0.15 92 1017.9
20260507005548 32 0 0.0 0.0 0.01 0.15 0.15 92 1018.0
20260507005045 32 0 0.0 0.0 0.01 0.15 0.15 92 1018.0
20260507004556 32 0 0.0 0.0 0.01 0.15 0.15 92 1017.9
20260507004045 32 0 0.0 0.0 0.02 0.15 0.15 92 1018.0
20260507003545 32 0 0.0 0.0 0.02 0.15 0.15 92 1018.0
20260507003055 32 0 0.0 0.0 0.02 0.15 0.15 92 1018.0
20260507002544 32 0 0.0 0.0 0.02 0.15 0.15 92 1018.0
20260507002045 32 0 0.0 0.0 0.02 0.15 0.15 92 1018.1
20260507001556 32 0 0.0 0.0 0.01 0.14 0.14 92 1018.2
20260507001044 32 0 0.0 0.0 0.01 0.14 0.14 92 1018.1
20260507000549 32 0 0.0 0.0 0.02 0.14 0.14 91 1018.2
20260507000053 32 0 0.0 0.0 0.02 0.14 0.14 91 1018.2
20260506235544 32 0 0.0 0.0 0.02 0.14 0.14 92 1018.3
20260506235048 32 0 0.0 0.0 0.02 0.14 0.14 92 1018.3
20260506234558 32 0 0.0 0.0 0.03 0.14 0.14 91 1018.2
20260506234048 32 0 0.0 3.0 0.02 0.13 0.13 91 1018.2
20260506233549 32 0 0.0 3.0 0.02 0.13 0.13 90 1018.2
20260506233057 32 64 0.0 0.0 0.02 0.13 0.13 91 1018.2
20260506232547 32 0 0.0 4.0 0.03 0.13 0.13 90 1018.1
20260506232048 32 0 1.0 5.0 0.03 0.13 0.13 90 1018.1
20260506231607 32 0 0.0 5.0 0.04 0.13 0.13 90 1018.0
20260506231047 32 0 0.0 4.0 0.04 0.13 0.13 90 1017.9
20260506230547 33 0 0.0 4.0 0.03 0.12 0.12 90 1017.9
20260506230111 33 0 0.0 4.0 0.03 0.12 0.12 90 1017.9
20260506225548 32 0 1.0 4.0 0.03 0.13 0.12 90 1017.9
20260506225047 32 0 0.0 5.0 0.04 0.13 0.12 90 1018.0
20260506224550 32 0 0.0 5.0 0.03 0.12 0.11 90 1018.0
20260506224047 32 0 1.0 4.0 0.03 0.12 0.11 89 1018.0
20260506223546 32 0 0.0 3.0 0.03 0.12 0.11 89 1018.1
20260506223056 32 0 0.0 2.0 0.04 0.12 0.11 89 1018.1
20260506222548 32 0 0.0 0.0 0.03 0.11 0.10 89 1018.1
20260506222050 32 0 0.0 0.0 0.03 0.11 0.10 89 1018.2
20260506221610 32 0 0.0 0.0 0.02 0.10 0.09 90 1018.2
20260506221047 32 0 0.0 0.0 0.02 0.10 0.09 91 1018.3
20260506220551 32 0 0.0 1.0 0.03 0.10 0.09 91 1018.4
20260506220110 31 0 0.0 1.0 0.03 0.10 0.09 92 1018.4
20260506215547 31 0 0.0 1.0 0.03 0.12 0.09 92 1018.5
20260506215048 30 0 0.0 5.0 0.03 0.11 0.08 91 1018.6
20260506214554 30 0 0.0 6.0 0.03 0.11 0.08 91 1018.6
20260506214048 30 0 0.0 6.0 0.03 0.11 0.08 90 1018.6
20260506213547 30 53 0.0 4.0 0.03 0.11 0.08 90 1018.7
20260506213110 31 53 0.0 6.0 0.02 0.10 0.07 90 1018.6
20260506212548 31 53 2.0 6.0 0.03 0.10 0.07 90 1018.8
20260506212044 31 0 0.0 6.0 0.03 0.10 0.07 91 1018.8
20260506211548 31 0 1.0 7.0 0.03 0.10 0.07 91 1018.8
20260506211047 31 0 1.0 7.0 0.03 0.10 0.07 90 1018.7
20260506210548 31 0 0.0 6.0 0.03 0.09 0.06 90 1018.8
20260506210056 31 0 0.0 6.0 0.03 0.09 0.06 91 1018.8
20260506205548 31 0 1.0 6.0 0.03 0.10 0.06 90 1018.9
20260506205048 31 72 0.0 3.0 0.02 0.09 0.05 91 1018.8
20260506204547 30 0 0.0 4.0 0.02 0.09 0.05 90 1018.8
20260506204047 30 0 0.0 4.0 0.03 0.09 0.05 90 1018.9
20260506203548 30 94 0.0 4.0 0.03 0.09 0.05 90 1019.1
20260506203046 30 0 0.0 4.0 0.03 0.09 0.05 91 1019.0
20260506202547 30 68 0.0 5.0 0.03 0.08 0.04 91 1019.1
20260506202049 30 0 0.0 5.0 0.03 0.08 0.04 90 1019.1
20260506201551 30 0 0.0 4.0 0.03 0.08 0.04 90 1019.2
20260506201048 30 0 0.0 4.0 0.04 0.08 0.04 91 1019.2
20260506200547 30 61 0.0 6.0 0.03 0.07 0.03 91 1019.2
20260506200048 30 61 1.0 9.0 0.03 0.07 0.03 91 1019.2
20260506195552 30 52 0.0 9.0 0.03 0.09 0.03 91 1019.1
20260506195048 30 60 1.0 9.0 0.03 0.09 0.03 90 1019.2
20260506194552 30 0 0.0 5.0 0.03 0.09 0.03 90 1019.3
20260506194048 30 65 0.0 8.0 0.02 0.08 0.02 91 1019.3
20260506193546 30 0 1.0 8.0 0.02 0.08 0.02 90 1019.3
20260506193047 31 101 1.0 6.0 0.02 0.08 0.02 90 1019.3
20260506192544 31 94 1.0 7.0 0.01 0.07 0.01 89 1019.3
20260506192048 31 92 1.0 7.0 0.01 0.07 0.01 89 1019.4
20260506191551 31 0 2.0 7.0 0.01 0.07 0.01 89 1019.4
20260506191047 31 0 0.0 5.0 0.00 0.06 0.00 89 1019.3
20260506190547 31 120 1.0 5.0 0.00 0.06 0.00 89 1019.4
20260506190055 31 0 2.0 6.0 0.00 0.06 0.00 90 1019.3
20260506185547 30 0 0.0 6.0 0.00 0.07 0.00 91 1019.4
20260506185047 30 0 0.0 6.0 0.00 0.07 0.00 89 1019.5
20260506184612 30 0 1.0 6.0 0.00 0.07 0.00 90 1019.5
20260506184045 29 49 0.0 6.0 0.00 0.07 0.00 90 1019.6
20260506183551 29 46 0.0 6.0 0.00 0.07 0.00 89 1019.6
20260506183049 29 0 0.0 6.0 0.00 0.07 0.00 89 1019.7
20260506182547 29 60 2.0 6.0 0.00 0.07 0.00 89 1019.8
20260506182051 29 0 0.0 5.0 0.00 0.07 0.00 90 1019.8
20260506181551 29 48 2.0 7.0 0.00 0.07 0.00 90 1019.7
20260506181047 29 0 1.0 7.0 0.00 0.07 0.00 90 1019.6
20260506180547 29 49 2.0 7.0 0.00 0.07 0.00 91 1019.8
20260506180056 28 0 3.0 7.0 0.00 0.07 0.00 91 1019.7
20260506175546 28 57 2.0 6.0 0.00 0.08 0.00 91 1019.7
20260506175050 28 0 2.0 7.0 0.00 0.08 0.00 91 1019.7
20260506174552 28 57 1.0 7.0 0.00 0.08 0.00 91 1019.7
20260506174047 27 0 3.0 9.0 0.00 0.08 0.00 91 1019.8
20260506173547 27 0 1.0 9.0 0.00 0.08 0.00 91 1019.9
20260506173052 27 38 3.0 9.0 0.00 0.08 0.00 91 1019.9
20260506172546 27 38 2.0 8.0 0.00 0.08 0.00 91 1019.8
20260506172048 27 38 1.0 8.0 0.00 0.08 0.00 92 1019.8
20260506171557 26 38 3.0 9.0 0.00 0.08 0.00 92 1019.8
20260506171048 26 0 1.0 11.0 0.00 0.08 0.00 92 1019.7
20260506170545 26 38 4.0 11.0 0.00 0.08 0.00 92 1019.8
20260506170057 26 38 3.0 9.0 0.00 0.08 0.00 92 1019.6
20260506165547 25 38 3.0 10.0 0.00 0.09 0.00 92 1019.7
20260506165047 26 38 4.0 10.0 0.00 0.09 0.00 92 1019.6
20260506164551 26 0 3.0 10.0 0.00 0.09 0.00 92 1019.5
20260506164046 26 38 4.0 10.0 0.00 0.09 0.00 92 1019.5
20260506163547 25 38 1.0 7.0 0.00 0.09 0.00 92 1019.3
20260506163107 25 0 1.0 9.0 0.00 0.09 0.00 93 1019.3
20260506162551 25 38 3.0 9.0 0.00 0.09 0.00 92 1019.2
20260506162048 25 38 4.0 9.0 0.00 0.09 0.00 93 1019.1
20260506161553 25 38 2.0 9.0 0.00 0.09 0.00 92 1019.0
20260506161045 25 38 2.0 9.0 0.00 0.09 0.00 93 1019.0
20260506160549 25 38 2.0 13.0 0.00 0.09 0.00 93 1018.9
20260506160101 25 38 3.0 13.0 0.00 0.09 0.00 93 1018.7
20260506155545 25 38 4.0 13.0 0.00 0.09 0.00 93 1018.9
20260506155047 25 38 3.0 10.0 0.00 0.09 0.00 93 1018.7
20260506154550 25 38 3.0 10.0 0.00 0.09 0.00 93 1018.7
20260506154051 25 38 3.0 9.0 0.00 0.09 0.00 93 1018.7
20260506153546 25 38 2.0 10.0 0.00 0.09 0.00 93 1018.8
20260506153046 25 38 4.0 10.0 0.00 0.09 0.00 93 1018.7
20260506152547 25 38 4.0 12.0 0.00 0.09 0.00 93 1018.7
20260506152047 25 38 4.0 12.0 0.00 0.09 0.00 93 1018.5
20260506151557 25 38 3.0 9.0 0.00 0.09 0.00 93 1018.5
20260506151047 25 38 4.0 8.0 0.00 0.09 0.00 93 1018.5
20260506150548 25 38 0.0 5.0 0.00 0.09 0.00 93 1018.5
20260506150055 25 0 1.0 10.0 0.00 0.09 0.00 93 1018.6
20260506145548 25 0 0.0 10.0 0.00 0.09 0.00 94 1018.4
20260506145048 25 38 1.0 8.0 0.00 0.09 0.00 93 1018.4
20260506144602 25 38 3.0 8.0 0.00 0.09 0.00 93 1018.4
20260506144047 25 38 3.0 9.0 0.00 0.09 0.00 93 1018.4
20260506143548 24 38 2.0 10.0 0.00 0.09 0.00 94 1018.4
20260506143057 24 38 3.0 10.0 0.00 0.09 0.00 94 1018.2
20260506142547 24 38 3.0 11.0 0.00 0.09 0.00 93 1018.2
20260506142047 24 38 2.0 11.0 0.00 0.09 0.00 94 1018.2
20260506141601 24 38 2.0 11.0 0.00 0.09 0.00 94 1018.1
20260506141048 24 38 2.0 10.0 0.00 0.09 0.00 94 1018.1
20260506140548 24 38 3.0 10.0 0.00 0.09 0.00 93 1018.1
20260506140059 24 38 3.0 10.0 0.00 0.09 0.00 93 1018.1
20260506135545 24 38 4.0 10.0 0.00 0.09 0.00 93 1018.0
20260506135048 24 38 0.0 9.0 0.00 0.09 0.00 94 1017.9
20260506134557 24 38 2.0 9.0 0.00 0.09 0.00 93 1017.9
20260506134045 24 38 3.0 9.0 0.00 0.09 0.00 94 1017.9
20260506133547 25 0 0.0 9.0 0.00 0.09 0.00 94 1017.9
20260506133100 25 0 1.0 9.0 0.00 0.09 0.00 94 1017.9
20260506132547 25 38 4.0 7.0 0.00 0.09 0.00 94 1017.9
20260506132044 25 38 0.0 5.0 0.00 0.09 0.00 94 1017.7
20260506131612 25 0 0.0 0.0 0.00 0.09 0.00 94 1017.6
20260506131044 25 0 0.0 0.0 0.00 0.09 0.00 94 1017.5
20260506130544 25 0 0.0 0.0 0.00 0.09 0.00 94 1017.4
20260506125548 25 0 0.0 0.0 0.00 0.09 0.00 94 1017.3
20260506125044 25 0 0.0 0.0 0.00 0.09 0.00 94 1017.1